Regional Weather Roundup
Issued by NWS

Home | Current Version | Previous Version | Text Only | Print | Product List | Glossary Off
Versions: 1 2 3 4 5 6 7 8 9 10 11 12 13 14 15 16 17 18 19 20 21 22 23 24 25 26 27 28 29 30 31 32 33 34 35 36 37 38 39 40 41 42 43 44 45 46 47 48 49 50

572
ASUS43 KOAX 061010
RWRNE

WEATHER ROUNDUP FOR NEBRASKA
NATIONAL WEATHER SERVICE OMAHA NE
500 AM CDT FRI MAY 06 2016

NOTES: SATELLITE DATA IS BEING USED TO AUGMENT CLOUD COVER ABOVE
       12000 FEET.
       "FAIR" INDICATES FEW OR NO CLOUDS BELOW 12,000 FEET WITH NO
       SIGNIFICANT WEATHER AND/OR OBSTRUCTIONS TO VISIBILITY.

  * THESE STATIONS DO NOT REPORT WEATHER SUCH AS RAIN...SNOW OR FOG.

NEZ001>004-019>022-054>056-061100-
NEBRASKA PANHANDLE

CITY           SKY/WX    TMP DP  RH WIND       PRES   REMARKS
SCOTTSBLUFF    CLOUDY    61  43  51 CALM      29.93F
ALLIANCE       CLOUDY    48  44  86 SE10      29.94F
CHADRON        PTCLDY    54  45  71 CALM      29.88F
KIMBALL        CLOUDY    50  43  77 SW5       29.99F
SIDNEY         CLOUDY    54  44  69 SW10      29.97F
$$

NEZ057>060-069>072-079>082-061100-
SOUTHWEST NEBRASKA

CITY           SKY/WX    TMP DP  RH WIND       PRES   REMARKS
NORTH PLATTE   PTCLDY    56  46  69 SE6       29.97F
IMPERIAL       PTCLDY    57  46  66 SE9       29.97F
MCCOOK         CLOUDY    57  45  64 S12       29.99F
OGALLALA       CLOUDY    57  46  66 CALM      29.98S
$$

NEZ005>010-023>029-035>040-094-061100-
NORTH CENTRAL NEBRASKA

CITY           SKY/WX    TMP DP  RH WIND       PRES   REMARKS
VALENTINE      CLEAR     63  47  55 SW18G26   29.90F
AINSWORTH      CLEAR     60  46  61 S15       29.93F
BROKEN BOW     LGT RAIN  58  45  62 S9        29.99S
O`NEILL        CLEAR     60  47  62 S9        29.95S
ORD            CLOUDY    54  45  71 CALM      29.97S
THEDFORD       CLEAR     60  47  62 S13G18    29.96F
$$

NEZ041-046>049-061>064-073>077-083>087-061100-
SOUTH CENTRAL NEBRASKA

CITY           SKY/WX    TMP DP  RH WIND       PRES   REMARKS
GRAND ISLAND   CLEAR     60  41  49 S13       30.00S
AURORA         CLEAR     55  43  63 SW10      30.00F
HASTINGS       CLEAR     56  42  59 S7        30.01S
HEBRON         CLEAR     50  43  77 CALM      30.02F
HOLDREGE       CLEAR     55  43  64 S8        30.01F
KEARNEY *      CLEAR     54  43  66 S9        30.01S
YORK           CLEAR     54  43  66 SW9       30.01S
$$

NEZ011>018-030>034-042>045-061100-
NORTHEAST NEBRASKA

CITY           SKY/WX    TMP DP  RH WIND       PRES   REMARKS
NORFOLK        CLEAR     57  42  57 SW9       29.96S
ALBION         CLEAR     55  42  60 CALM      29.99S
BLAIR          CLEAR     55  43  64 S6        29.98F
COLUMBUS *     CLEAR     55  39  54 SW6       30.00R
FREMONT        CLEAR     57  43  59 SW6       29.99S
TEKAMAH        CLEAR     50  44  80 SE8       29.97S
WAYNE          CLEAR     54  44  68 SW9       29.97S
$$

NEZ050>053-065>068-078-088>093-061100-
SOUTHEAST NEBRASKA

CITY           SKY/WX    TMP DP  RH WIND       PRES   REMARKS
LINCOLN        CLEAR     56  43  61 S5        30.01F
OMAHA EPPLEY   CLEAR     53  44  71 SE9       29.99S
BEATRICE       CLEAR     50  44  78 CALM      30.02F
FALLS CITY     CLEAR     51  44  77 SE5       30.02S
NEBRASKA CITY  CLEAR     54  42  63 SW10      30.01S
PLATTSMOUTH    CLEAR     58  45  61 S7        30.00S
$$

NEZ044-045-051>053-067-061100-
OMAHA AREA

CITY           SKY/WX    TMP DP  RH WIND       PRES   REMARKS
OMAHA EPPLEY   CLEAR     53  44  71 SE9       29.99S
BLAIR          CLEAR     55  43  64 S6        29.98F
FREMONT        CLEAR     57  43  59 SW6       29.99S
MILLARD        CLEAR     50  45  84 CALM      29.99S
OFFUTT AFB     CLEAR     48  46  93 E2        29.99S
PLATTSMOUTH    CLEAR     58  45  61 S7        30.00S
WAHOO          FAIR      57  44  62 SW8       29.99S
$$




USA.gov is the U.S. government's official web portal to all federal, state and local government web resources and services.